View from above orbital plane
|
View from above satellite
|
Ground track
|
The orbit data is extracted from the following two-line orbital elements,
1 18586U 87098B 21055.49842915 .00000031 00000-0 19451-4 0 9993
2 18586 74.0087 332.2547 0019842 69.4138 290.9141 14.36935348740718
Epoch (UTC): | 24 February 2021 11:57:44 |
Eccentricity: | 0.0019842 |
inclination: | 74.0087° |
perigee height: | 754 km |
apogee height: | 783 km |
right ascension of ascending node: | 332.2547° |
argument of perigee: | 69.4138° |
revolutions per day: | 14.36935348 |
mean anomaly at epoch: | 290.9141° |
orbit number at epoch: | 74071 |
The dashed part of the orbit path shows where the satellite is in the earth's shadow,
|
|